(°F)
23°
23°
23°
24°
25°
25°
27°
(°F)
13°
13°
13°
14°
14°
15°
16°
S
S
S
S
S
S
S
(mph)
7-16
7-17
7-16
7-17
8-17
8-18
9-19
(in)
0
0
0
0
0
0
0
(%)
0
0
0
0
0
0
0

Sun elevation

/ -47.1°
sun-icon
UV 1
08:11
17:47
Last quarter moon (277°)
23:52
16:10

METAR for 55.27°N 86.11°E (UNEE)

Time Conditions Temperature/
Dewpoint
Wind Visibility Weather Clouds Pressure Change Raw
VFR 23°F / 15.8°F 150º 4kt >10km - Clouds and Visibility OK 1023 No Significant change UNEE 281830Z 15002MPS CAVOK M05/M09 Q1023 R23/CLRD60 NOSIG RMK QFE745
VFR 23°F / 15.8°F 140º 6kt >10km - Clouds and Visibility OK 1024 No Significant change UNEE 281800Z 14003MPS CAVOK M05/M09 Q1024 R23/CLRD60 NOSIG RMK QFE745
VFR 23°F / 15.8°F 120º 4kt >10km - Clouds and Visibility OK 1024 No Significant change UNEE 281730Z 12002MPS CAVOK M05/M09 Q1024 R23/CLRD60 NOSIG RMK QFE745
VFR 23°F / 15.8°F 130º 4kt >10km - Clouds and Visibility OK 1024 No Significant change UNEE 281700Z 13002MPS CAVOK M05/M09 Q1024 R23/CLRD60 NOSIG RMK QFE745
VFR 24.8°F / 15.8°F 140º 6kt >10km - Clouds and Visibility OK 1025 No Significant change UNEE 281630Z 14003MPS CAVOK M04/M09 Q1025 R23/CLRD60 NOSIG RMK QFE745
VFR 24.8°F / 15.8°F 140º 4kt >10km - Clouds and Visibility OK 1025 No Significant change UNEE 281600Z 14002MPS CAVOK M04/M09 Q1025 R23/CLRD60 NOSIG RMK QFE745
VFR 24.8°F / 15.8°F 140º 4kt >10km - Clouds and Visibility OK 1025 No Significant change UNEE 281530Z 14002MPS CAVOK M04/M09 Q1025 R23/CLRD60 NOSIG RMK QFE746
VFR 24.8°F / 15.8°F 150º 6kt >10km - Clouds and Visibility OK 1025 No Significant change UNEE 281500Z 15003MPS CAVOK M04/M09 Q1025 R23/CLRD60 NOSIG RMK QFE746
VFR 26.6°F / 15.8°F 170º 4kt >10km - Clouds and Visibility OK 1025 No Significant change UNEE 281430Z 17002MPS CAVOK M03/M09 Q1025 R23/CLRD60 NOSIG RMK QFE746
VFR 26.6°F / 15.8°F 150º 6kt >10km - Clouds and Visibility OK 1025 No Significant change UNEE 281400Z 15003MPS CAVOK M03/M09 Q1025 R23/CLRD60 NOSIG RMK QFE746
VFR 28.4°F / 15.8°F 150º 6kt >10km - Clouds and Visibility OK 1025 No Significant change UNEE 281330Z 15003MPS CAVOK M02/M09 Q1025 R23/CLRD60 NOSIG RMK QFE746
VFR 28.4°F / 15.8°F 150º 6kt >10km - Clouds and Visibility OK 1025 No Significant change UNEE 281300Z 15003MPS CAVOK M02/M09 Q1025 R23/CLRD60 NOSIG RMK QFE746
VFR 28.4°F / 15.8°F 150º 6kt >10km - Clouds and Visibility OK 1025 No Significant change UNEE 281230Z 15003MPS CAVOK M02/M09 Q1025 R23/CLRD60 NOSIG RMK QFE746
VFR 28.4°F / 15.8°F 150º 4kt >10km - Clouds and Visibility OK 1026 No Significant change UNEE 281200Z 15002MPS CAVOK M02/M09 Q1026 R23/CLRD60 NOSIG RMK QFE746
VFR 28.4°F / 17.6°F 130º 6kt >10km - Clouds and Visibility OK 1026 No Significant change UNEE 281130Z 13003MPS CAVOK M02/M08 Q1026 R23/CLRD60 NOSIG RMK QFE746
VFR 30.2°F / 17.6°F 130º 4kt >10km - Clouds and Visibility OK 1026 No Significant change UNEE 281100Z 13002MPS CAVOK M01/M08 Q1026 R23/CLRD60 NOSIG RMK QFE746
VFR 30.2°F / 17.6°F 150º 6kt >10km - Clouds and Visibility OK 1026 No Significant change UNEE 281030Z 15003MPS CAVOK M01/M08 Q1026 R23/CLRD60 NOSIG RMK QFE746
VFR 32°F / 17.6°F 160º 6kt >10km - Clouds and Visibility OK 1026 No Significant change UNEE 281000Z 16003MPS CAVOK 00/M08 Q1026 R23/CLRD60 NOSIG RMK QFE746
VFR 33.8°F / 17.6°F 160º 8kt >10km - Clouds and Visibility OK 1026 No Significant change UNEE 280930Z 16004MPS CAVOK 01/M08 Q1026 R23/CLRD60 NOSIG RMK QFE747
VFR 33.8°F / 17.6°F 170º 8kt >10km - Clouds and Visibility OK 1027 No Significant change UNEE 280900Z 17004MPS CAVOK 01/M08 Q1027 R23/CLRD60 NOSIG RMK QFE747
VFR 32°F / 17.6°F 160º 8kt >10km - Clouds and Visibility OK 1027 No Significant change UNEE 280830Z 16004MPS CAVOK 00/M08 Q1027 R23/CLRD60 NOSIG RMK QFE747
VFR 32°F / 17.6°F 160º 8kt >10km - Clouds and Visibility OK 1027 No Significant change UNEE 280800Z 16004MPS CAVOK 00/M08 Q1027 R23/CLRD60 NOSIG RMK QFE747
VFR 32°F / 17.6°F 160º 8kt >10km - Clouds and Visibility OK 1027 No Significant change UNEE 280730Z 16004MPS CAVOK M00/M08 Q1027 R23/CLRD60 NOSIG RMK QFE747
VFR 32°F / 17.6°F 180º 8kt >10km - Clouds and Visibility OK 1027 No Significant change UNEE 280700Z 18004MPS CAVOK M00/M08 Q1027 R23/CLRD60 NOSIG RMK QFE747

VFR

23°F / 15.8°F

[More]
Wind 150º 4kt
Visibility >10km
Weather -
Clouds Clouds and Visibility OK
Pressure 1023
Change No Significant change
Raw UNEE 281830Z 15002MPS CAVOK M05/M09 Q1023 R23/CLRD60 NOSIG RMK QFE745

VFR

23°F / 15.8°F

[More]
Wind 140º 6kt
Visibility >10km
Weather -
Clouds Clouds and Visibility OK
Pressure 1024
Change No Significant change
Raw UNEE 281800Z 14003MPS CAVOK M05/M09 Q1024 R23/CLRD60 NOSIG RMK QFE745

VFR

23°F / 15.8°F

[More]
Wind 120º 4kt
Visibility >10km
Weather -
Clouds Clouds and Visibility OK
Pressure 1024
Change No Significant change
Raw UNEE 281730Z 12002MPS CAVOK M05/M09 Q1024 R23/CLRD60 NOSIG RMK QFE745

VFR

23°F / 15.8°F

[More]
Wind 130º 4kt
Visibility >10km
Weather -
Clouds Clouds and Visibility OK
Pressure 1024
Change No Significant change
Raw UNEE 281700Z 13002MPS CAVOK M05/M09 Q1024 R23/CLRD60 NOSIG RMK QFE745

VFR

24.8°F / 15.8°F

[More]
Wind 140º 6kt
Visibility >10km
Weather -
Clouds Clouds and Visibility OK
Pressure 1025
Change No Significant change
Raw UNEE 281630Z 14003MPS CAVOK M04/M09 Q1025 R23/CLRD60 NOSIG RMK QFE745

VFR

24.8°F / 15.8°F

[More]
Wind 140º 4kt
Visibility >10km
Weather -
Clouds Clouds and Visibility OK
Pressure 1025
Change No Significant change
Raw UNEE 281600Z 14002MPS CAVOK M04/M09 Q1025 R23/CLRD60 NOSIG RMK QFE745

VFR

24.8°F / 15.8°F

[More]
Wind 140º 4kt
Visibility >10km
Weather -
Clouds Clouds and Visibility OK
Pressure 1025
Change No Significant change
Raw UNEE 281530Z 14002MPS CAVOK M04/M09 Q1025 R23/CLRD60 NOSIG RMK QFE746

VFR

24.8°F / 15.8°F

[More]
Wind 150º 6kt
Visibility >10km
Weather -
Clouds Clouds and Visibility OK
Pressure 1025
Change No Significant change
Raw UNEE 281500Z 15003MPS CAVOK M04/M09 Q1025 R23/CLRD60 NOSIG RMK QFE746

VFR

26.6°F / 15.8°F

[More]
Wind 170º 4kt
Visibility >10km
Weather -
Clouds Clouds and Visibility OK
Pressure 1025
Change No Significant change
Raw UNEE 281430Z 17002MPS CAVOK M03/M09 Q1025 R23/CLRD60 NOSIG RMK QFE746

VFR

26.6°F / 15.8°F

[More]
Wind 150º 6kt
Visibility >10km
Weather -
Clouds Clouds and Visibility OK
Pressure 1025
Change No Significant change
Raw UNEE 281400Z 15003MPS CAVOK M03/M09 Q1025 R23/CLRD60 NOSIG RMK QFE746

VFR

28.4°F / 15.8°F

[More]
Wind 150º 6kt
Visibility >10km
Weather -
Clouds Clouds and Visibility OK
Pressure 1025
Change No Significant change
Raw UNEE 281330Z 15003MPS CAVOK M02/M09 Q1025 R23/CLRD60 NOSIG RMK QFE746

VFR

28.4°F / 15.8°F

[More]
Wind 150º 6kt
Visibility >10km
Weather -
Clouds Clouds and Visibility OK
Pressure 1025
Change No Significant change
Raw UNEE 281300Z 15003MPS CAVOK M02/M09 Q1025 R23/CLRD60 NOSIG RMK QFE746

VFR

28.4°F / 15.8°F

[More]
Wind 150º 6kt
Visibility >10km
Weather -
Clouds Clouds and Visibility OK
Pressure 1025
Change No Significant change
Raw UNEE 281230Z 15003MPS CAVOK M02/M09 Q1025 R23/CLRD60 NOSIG RMK QFE746

VFR

28.4°F / 15.8°F

[More]
Wind 150º 4kt
Visibility >10km
Weather -
Clouds Clouds and Visibility OK
Pressure 1026
Change No Significant change
Raw UNEE 281200Z 15002MPS CAVOK M02/M09 Q1026 R23/CLRD60 NOSIG RMK QFE746

VFR

28.4°F / 17.6°F

[More]
Wind 130º 6kt
Visibility >10km
Weather -
Clouds Clouds and Visibility OK
Pressure 1026
Change No Significant change
Raw UNEE 281130Z 13003MPS CAVOK M02/M08 Q1026 R23/CLRD60 NOSIG RMK QFE746

VFR

30.2°F / 17.6°F

[More]
Wind 130º 4kt
Visibility >10km
Weather -
Clouds Clouds and Visibility OK
Pressure 1026
Change No Significant change
Raw UNEE 281100Z 13002MPS CAVOK M01/M08 Q1026 R23/CLRD60 NOSIG RMK QFE746

VFR

30.2°F / 17.6°F

[More]
Wind 150º 6kt
Visibility >10km
Weather -
Clouds Clouds and Visibility OK
Pressure 1026
Change No Significant change
Raw UNEE 281030Z 15003MPS CAVOK M01/M08 Q1026 R23/CLRD60 NOSIG RMK QFE746

VFR

32°F / 17.6°F

[More]
Wind 160º 6kt
Visibility >10km
Weather -
Clouds Clouds and Visibility OK
Pressure 1026
Change No Significant change
Raw UNEE 281000Z 16003MPS CAVOK 00/M08 Q1026 R23/CLRD60 NOSIG RMK QFE746

VFR

33.8°F / 17.6°F

[More]
Wind 160º 8kt
Visibility >10km
Weather -
Clouds Clouds and Visibility OK
Pressure 1026
Change No Significant change
Raw UNEE 280930Z 16004MPS CAVOK 01/M08 Q1026 R23/CLRD60 NOSIG RMK QFE747

VFR

33.8°F / 17.6°F

[More]
Wind 170º 8kt
Visibility >10km
Weather -
Clouds Clouds and Visibility OK
Pressure 1027
Change No Significant change
Raw UNEE 280900Z 17004MPS CAVOK 01/M08 Q1027 R23/CLRD60 NOSIG RMK QFE747

VFR

32°F / 17.6°F

[More]
Wind 160º 8kt
Visibility >10km
Weather -
Clouds Clouds and Visibility OK
Pressure 1027
Change No Significant change
Raw UNEE 280830Z 16004MPS CAVOK 00/M08 Q1027 R23/CLRD60 NOSIG RMK QFE747

VFR

32°F / 17.6°F

[More]
Wind 160º 8kt
Visibility >10km
Weather -
Clouds Clouds and Visibility OK
Pressure 1027
Change No Significant change
Raw UNEE 280800Z 16004MPS CAVOK 00/M08 Q1027 R23/CLRD60 NOSIG RMK QFE747

VFR

32°F / 17.6°F

[More]
Wind 160º 8kt
Visibility >10km
Weather -
Clouds Clouds and Visibility OK
Pressure 1027
Change No Significant change
Raw UNEE 280730Z 16004MPS CAVOK M00/M08 Q1027 R23/CLRD60 NOSIG RMK QFE747

VFR

32°F / 17.6°F

[More]
Wind 180º 8kt
Visibility >10km
Weather -
Clouds Clouds and Visibility OK
Pressure 1027
Change No Significant change
Raw UNEE 280700Z 18004MPS CAVOK M00/M08 Q1027 R23/CLRD60 NOSIG RMK QFE747

TAF for 55.27°N 86.11°E (UNEE)

From till


From till Wind 180º 6kt. Gust 16kt. Visibility 10km or more. Scattered Clouds 4000ft.
Temporarly from till Wind 190º 16kt. Gust 29kt.

Raw: TAF UNEE 281700Z 2818/2918 18003G08MPS 9999 SCT040 TEMPO 2900/2918 19008G15MPS

Current satellite and rain images for 55.27°N 86.11°E

The location marker is placed on 55.27°N 86.11°E. [More]

The real-time satellite image combines visible light during daytime with infrared radiation during nighttime. At night, the image is not dark as infrared radiation can detect temperature differences. Unfortunately, low clouds and fog are difficult to distinguish from ground temperatures and thus can be almost invisible during the night. Meteosat satellite images for Europe are updated in real-time every 5 minutes. GOES-16/GOES-17 (North & South America) and Himawari (Asia) images update every 10 minutes.

Copyright 2021 EUMETSAT / meteoblue. / Copyright 2021 meteoblue

Radar and precipitation nowcast for 55.27°N 86.11°E

Drizzle
Light
Moderate
Heavy
Very Heavy
Hail

The location marker is placed on 55.27°N 86.11°E. This animation shows the precipitation radar for the last hour, as well as a 1h forecast. Drizzle or light snow fall might be invisible for the radar. Precipitation intensity is colour coded, ranging from light blue to orange.